map of SBW home
Great Circle Mapper logo
SBW - Airport
Location
City:  Sibu, Sarawak, Borneo, Malaysia
ICAO / IATA:WBGS / SBW

Details
Type:Airport (Aerodrome, Airfield)
Use:Public/Civil
Latitude:2°15'42"N (2.261603)
Longitude:111°59'07"E (111.985322)
Datum:WGS 1984
Elevation:122 ft (37 m)
Variation:0.38°E (WMM2015 magnetic declination)
-0.06° annual change
Runways:1
Longest:9036 × 148 ft (2754 × 45 m), paved

Time
Time Zone:UTC+8
Local Time:

Weather
METAR:WBGS 040900Z 23005KT 180V260 9999 FEW015CB BKN150 30/24 Q1008
TAF:WBGS 040500Z 0406/0506 25006KT 9999 SCT018 BKN150
TEMPO 0410/0414 5000 RA SCT016 BKN150

Related Locations
Nearby:
Farthest:OLC: 12332 mi / 19847 km
São Paulo de Olivença [Senadora Eunice Michiles], AM, BR

Find:

   beyond  
but within

Other Information
Maps:
NOTAMs:
Links:
Sources:

  
flag of Malaysia   

Sectional Chart

Flight Planning
at skyvector.com

Satellite Image

Google Maps Satellite view

 

Copyright © 2004-2015 Karl L. Swartz. All rights reserved.
The Great Circle Mapper name and logo are trademarks of the Great Circle Mapper.
All other trademarks mentioned herein belong to their respective owners.
Please see credits for attibutions and further copyright information.

  Follow gcmap on Facebook Follow gcmap on Twitter Follow gcmap on Google+

hCard Microformat

Geo Microformat